TimeEST,TemperatureF,Dew PointF,Humidity,Sea Level PressureIn,VisibilityMPH,Wind Direction,Wind SpeedMPH,Gust SpeedMPH,PrecipitationIn,Events,Conditions,WindDirDegrees,DateUTC
12:15 AM,33.8,26.6,75,29.86,10.0,SW,20.7,25.3,N/A,,Clear,230,2014-01-20 05:15:00
12:35 AM,35.6,26.6,70,29.86,10.0,SW,18.4,25.3,N/A,,Clear,230,2014-01-20 05:35:00
12:55 AM,35.6,26.6,70,29.85,10.0,WSW,20.7,25.3,N/A,,Clear,240,2014-01-20 05:55:00
1:15 AM,35.6,26.6,70,29.84,10.0,SW,19.6,27.6,N/A,,Clear,230,2014-01-20 06:15:00
1:35 AM,35.6,26.6,70,29.84,10.0,SW,21.9,25.3,N/A,,Clear,230,2014-01-20 06:35:00
1:55 AM,35.6,26.6,70,29.84,10.0,SW,15.0,20.7,N/A,,Clear,230,2014-01-20 06:55:00
2:15 AM,33.8,26.6,75,29.86,10.0,WSW,16.1,21.9,N/A,,Clear,240,2014-01-20 07:15:00
2:35 AM,33.8,26.6,75,29.86,10.0,WSW,10.4,-,N/A,,Clear,240,2014-01-20 07:35:00
2:55 AM,33.8,26.6,75,29.86,10.0,SW,10.4,-,N/A,,Clear,220,2014-01-20 07:55:00
3:15 AM,33.8,24.8,70,29.86,10.0,SW,13.8,17.3,N/A,,Clear,220,2014-01-20 08:15:00
3:35 AM,33.8,24.8,70,29.85,10.0,SW,11.5,-,N/A,,Clear,220,2014-01-20 08:35:00
3:55 AM,32.0,26.6,80,29.86,10.0,SW,11.5,17.3,N/A,,Clear,230,2014-01-20 08:55:00
4:15 AM,32.0,26.6,80,29.85,10.0,SW,12.7,-,N/A,,Clear,230,2014-01-20 09:15:00
4:35 AM,32.0,26.6,80,29.85,10.0,SW,11.5,-,N/A,,Clear,230,2014-01-20 09:35:00
4:55 AM,32.0,26.6,80,29.85,10.0,SW,12.7,-,N/A,,Clear,230,2014-01-20 09:55:00
5:15 AM,32.0,26.6,80,29.85,10.0,SW,12.7,-,N/A,,Clear,230,2014-01-20 10:15:00
5:35 AM,32.0,26.6,80,29.84,10.0,SW,12.7,-,N/A,,Clear,230,2014-01-20 10:35:00
5:55 AM,32.0,26.6,80,29.85,10.0,SW,10.4,-,N/A,,Clear,230,2014-01-20 10:55:00
6:15 AM,32.0,26.6,80,29.85,10.0,SW,12.7,-,N/A,,Clear,230,2014-01-20 11:15:00
6:35 AM,32.0,26.6,80,29.85,10.0,SW,12.7,-,N/A,,Clear,230,2014-01-20 11:35:00
6:55 AM,32.0,26.6,80,29.85,10.0,SW,11.5,-,N/A,,Clear,220,2014-01-20 11:55:00
7:15 AM,32.0,26.6,80,29.85,10.0,SW,11.5,-,N/A,,Clear,220,2014-01-20 12:15:00
7:35 AM,32.0,26.6,80,29.85,10.0,SW,9.2,-,N/A,,Clear,230,2014-01-20 12:35:00
7:55 AM,32.0,26.6,80,29.87,10.0,WSW,9.2,-,N/A,,Clear,240,2014-01-20 12:55:00
8:15 AM,32.0,26.6,80,29.87,10.0,SW,12.7,-,N/A,,Clear,220,2014-01-20 13:15:00
8:35 AM,33.8,26.6,75,29.87,10.0,SW,10.4,-,N/A,,Clear,220,2014-01-20 13:35:00
8:55 AM,35.6,26.6,70,29.87,10.0,SW,11.5,16.1,N/A,,Clear,220,2014-01-20 13:55:00
9:15 AM,35.6,26.6,70,29.87,10.0,SW,12.7,-,N/A,,Clear,230,2014-01-20 14:15:00
9:35 AM,35.6,26.6,70,29.88,10.0,SW,8.1,17.3,N/A,,Clear,220,2014-01-20 14:35:00
9:55 AM,37.4,26.6,65,29.88,10.0,WSW,10.4,17.3,N/A,,Clear,240,2014-01-20 14:55:00
10:15 AM,37.4,28.4,70,29.88,10.0,SW,11.5,-,N/A,,Clear,220,2014-01-20 15:15:00
10:35 AM,39.2,28.4,65,29.88,10.0,SW,9.2,-,N/A,,Clear,230,2014-01-20 15:35:00
10:55 AM,41.0,28.4,61,29.89,10.0,SW,9.2,17.3,N/A,,Clear,230,2014-01-20 15:55:00
11:15 AM,41.0,28.4,61,29.88,10.0,SW,8.1,-,N/A,,Clear,220,2014-01-20 16:15:00
11:35 AM,42.8,28.4,57,29.88,10.0,SSW,11.5,-,N/A,,Clear,200,2014-01-20 16:35:00
11:55 AM,44.6,28.4,53,29.87,10.0,WSW,10.4,-,N/A,,Clear,250,2014-01-20 16:55:00
12:15 PM,44.6,28.4,53,29.86,10.0,SW,12.7,-,N/A,,Clear,220,2014-01-20 17:15:00
12:35 PM,46.4,28.4,50,29.84,10.0,SW,12.7,-,N/A,,Clear,230,2014-01-20 17:35:00
12:55 PM,46.4,30.2,53,29.84,10.0,WSW,12.7,18.4,N/A,,Clear,240,2014-01-20 17:55:00
1:15 PM,46.4,30.2,53,29.84,10.0,SW,8.1,-,N/A,,Clear,230,2014-01-20 18:15:00
1:35 PM,48.2,30.2,50,29.83,10.0,SW,10.4,-,N/A,,Clear,230,2014-01-20 18:35:00
1:55 PM,50.0,30.2,47,29.83,10.0,SSW,10.4,-,N/A,,Clear,210,2014-01-20 18:55:00
2:15 PM,50.0,30.2,47,29.82,10.0,SW,10.4,-,N/A,,Clear,230,2014-01-20 19:15:00
2:35 PM,50.0,28.4,43,29.82,10.0,WSW,9.2,-,N/A,,Clear,250,2014-01-20 19:35:00
2:55 PM,50.0,30.2,47,29.83,10.0,WSW,8.1,-,N/A,,Clear,240,2014-01-20 19:55:00
3:15 PM,51.8,30.2,44,29.83,10.0,SW,11.5,-,N/A,,Clear,220,2014-01-20 20:15:00
3:35 PM,51.8,30.2,44,29.83,10.0,SW,10.4,-,N/A,,Clear,230,2014-01-20 20:35:00
3:55 PM,50.0,30.2,47,29.83,10.0,SW,8.1,-,N/A,,Clear,230,2014-01-20 20:55:00
4:15 PM,50.0,30.2,47,29.84,10.0,SW,11.5,-,N/A,,Clear,220,2014-01-20 21:15:00
4:35 PM,50.0,28.4,43,29.84,10.0,SW,10.4,-,N/A,,Clear,220,2014-01-20 21:35:00
4:55 PM,50.0,28.4,43,29.84,10.0,SW,9.2,-,N/A,,Clear,220,2014-01-20 21:55:00
5:15 PM,48.2,28.4,46,29.85,10.0,SW,9.2,-,N/A,,Clear,230,2014-01-20 22:15:00
5:35 PM,44.6,28.4,53,29.85,10.0,SW,5.8,-,N/A,,Clear,230,2014-01-20 22:35:00
5:55 PM,44.6,28.4,53,29.86,10.0,WSW,4.6,-,N/A,,Clear,240,2014-01-20 22:55:00
6:15 PM,42.8,28.4,57,29.87,10.0,WSW,3.5,-,N/A,,Clear,240,2014-01-20 23:15:00
6:35 PM,42.8,28.4,57,29.86,10.0,Calm,Calm,-,N/A,,Clear,0,2014-01-20 23:35:00
6:55 PM,42.8,28.4,57,29.86,10.0,Calm,Calm,-,N/A,,Clear,0,2014-01-20 23:55:00
7:15 PM,42.8,28.4,57,29.86,10.0,Calm,Calm,-,N/A,,Clear,0,2014-01-21 00:15:00
7:35 PM,42.8,28.4,57,29.86,10.0,Calm,Calm,-,N/A,,Clear,0,2014-01-21 00:35:00
7:55 PM,42.8,28.4,57,29.85,10.0,Calm,Calm,-,N/A,,Clear,0,2014-01-21 00:55:00
8:15 PM,42.8,28.4,57,29.85,10.0,Calm,Calm,-,N/A,,Clear,0,2014-01-21 01:15:00
8:35 PM,42.8,28.4,57,29.84,10.0,Calm,Calm,-,N/A,,Clear,0,2014-01-21 01:35:00
8:55 PM,41.0,28.4,61,29.84,10.0,Calm,Calm,-,N/A,,Clear,0,2014-01-21 01:55:00
9:15 PM,41.0,28.4,61,29.84,10.0,Calm,Calm,-,N/A,,Clear,0,2014-01-21 02:15:00
9:35 PM,41.0,28.4,61,29.84,10.0,Calm,Calm,-,N/A,,Clear,0,2014-01-21 02:35:00
9:55 PM,41.0,28.4,61,29.83,10.0,Calm,Calm,-,N/A,,Clear,0,2014-01-21 02:55:00
10:15 PM,41.0,28.4,61,29.83,10.0,Calm,Calm,-,N/A,,Clear,0,2014-01-21 03:15:00
10:35 PM,39.2,28.4,65,29.82,10.0,Calm,Calm,-,N/A,,Clear,0,2014-01-21 03:35:00
10:55 PM,37.4,28.4,70,29.81,10.0,WSW,3.5,-,N/A,,Clear,250,2014-01-21 03:55:00
11:15 PM,37.4,28.4,70,29.81,10.0,WSW,3.5,-,N/A,,Clear,250,2014-01-21 04:15:00
11:35 PM,37.4,28.4,70,29.79,10.0,Calm,Calm,-,N/A,,Clear,0,2014-01-21 04:35:00
11:55 PM,37.4,28.4,70,29.79,10.0,Calm,Calm,-,N/A,,Clear,0,2014-01-21 04:55:00